Main page
METAR-TAF:

METAR-TAF

Airports :

Brenham Municipal Airport

Brenham, Texas, United States

latitude: 30-13-08N, longitude: 096-22-27W, elevation: 308 ft

Current weather observation

The report was made 29 minutes ago, at 23:15 UTC
Wind 7 mph from the South/Southeast
Temperature 79°F
Humidity 70%
Pressure 29.85 in. Hg
Visibility: 10 miles
Broken clouds at a height of 3700 ft
Overcast at a height of 5500 ft

METAR: K11R 302315Z AUTO 16006KT 10SM BKN037 OVC055 26/20 A2985 RMK AO2 T02550200

Time: 18:44 (23:44 UTC)


TAF: missing

Weather observations and forecasts of more than 4000 airports (METAR and TAF reports).

The available stations are represented by yellow and red dots on the map.

Hover mouse over dot to see the name of the station.

Then click to see weather observations and forecasts.

To change the map : click on the green buttons with a black cross to zoom in, on the green button with a dash to zoom out, or on the green arrows for adjacent maps.


METAR-TAF: